Find Starlink 11531

NORAD ID: 62841 Int'l Des: 2025-019 Owner: SPXS Country: US Constellation: starlink operational
LEOCIRCULAR

Current View

Loading 3D Globe...

About Starlink 11531

Starlink 11531 (NORAD 62841) is a starlink constellation satellite (v2 mini d2c) launched Jan 27, 2025 by SPXS of US. It operates in LEO, CIRCULAR orbit with a mass of 960.00 kg.

About Starlink 11531

Description loading...

Upcoming Passes

Passes for default location (London). Set your location on the main map for personalized predictions.

Altitude History

Loading altitude history...

Two-Line Element Set

1 62841U 25019N 26167.01886112 .00151304 00000-0 11579-2 0 9996
2 62841 42.9962 73.4403 0001781 254.6824 105.3847 15.70908950 79349
Epoch: Jun 16, 2026 • Age: 8 hours

Current Status

Altitude 358.4 km
Velocity 7.70 km/s
Sub-Earth Point 33.96°N, 88.06°E
Launch Date Jan 27, 2025
Age 1.3 years
Type internet

Technical Details

Classification Payload
Mass 960.00 kg
Dry Mass 910.00 kg
Total Mass 960.00 kg
Length 0.30 m
Diameter 4.10 m
Span 29.00 m
Shape Box + pan
Manufacturer SPXS
Bus Type Starlink V2MD
Phase Status In Orbit
Owner/State SPXS/US

Most Searched